Temp
15 15 16 16 17 17 17 17 17 16 17 17 17 16 16 16 16 16 16 16 15 16 16 16 16 16 16 16 16 16 15 15 15 15 16 16 15 15 15 15 16 16 15 15 15 15 15 16 16 15 15 16 16 16 16 16 17 17 18 18 18 18 18 18 18 17 15 15 15 15 14 14 15 15 14 14 13 13 13 13 12 13 13 13 13
16 16 16 16 16 16 17 16 16 16 16 16 16 16 16 16 16 16 16 16 15 15 16 16 16 16 16 16 16 16 16 16 15 16 16 15 15 15 15 15 16 16 15 16 16 15 15 16 16 15 15 15 16 16 16 17 17 18 18 18 18 17 18 18 17 17 16 15 15 15 14 14 15 14 14 14 13 14 14 13 13 13 13 13 13
16 16 16 16 16 16 16 16 16 16 16 16 16 16 16 16 16 16 16 16 16 16 16 16 16 17 17 16 16 16 16 16 16 16 16 15 15 15 15 15 15 15 15 16 16 16 15 15 16 15 15 15 15 16 16 16 17 18 17 17 17 17 17 17 17 17 17 16 15 15 15 14 15 15 14 13 13 14 14 14 13 13 13 13 13
16 16 16 16 16 16 16 16 16 16 16 16 17 17 16 16 16 16 16 16 16 16 16 16 16 17 17 17 17 16 16 16 16 16 15 15 15 15 15 15 15 15 15 15 16 16 15 15 15 15 15 15 15 15 16 16 17 17 17 17 17 16 16 17 17 17 17 16 16 16 15 14 14 15 14 14 13 13 14 13 13 13 13 12 13
16 16 17 16 16 16 16 16 16 16 16 17 17 16 16 16 16 16 16 16 16 16 16 16 16 16 16 17 16 16 16 16 16 16 15 15 15 15 15 15 15 15 15 15 15 15 15 15 15 15 15 15 15 15 15 15 16 16 16 17 16 16 16 16 16 17 17 16 16 15 15 15 15 14 14 14 14 14 14 14 13 13 12 12 12
16 16 16 16 16 16 16 16 16 16 16 16 16 16 16 16 16 16 16 16 16 16 16 16 16 16 16 16 16 16 16 16 16 16 16 15 15 15 15 15 15 15 15 15 15 15 15 15 15 15 15 15 15 15 14 14 15 15 16 16 17 16 15 16 16 16 16 16 16 15 15 15 14 14 14 14 14 14 14 14 14 13 12 12 12
16 16 16 16 16 16 16 15 16 16 15 15 16 16 16 16 16 16 16 16 16 16 16 16 16 16 17 16 16 16 15 15 15 15 15 15 15 15 15 14 15 15 15 15 15 15 15 15 15 15 15 15 15 14 14 14 14 14 15 15 16 15 15 15 16 16 16 16 16 15 15 15 14 14 14 13 13 14 14 13 14 14 13 13 12
16 16 16 16 16 16 15 15 15 15 15 15 15 16 16 16 16 16 16 16 16 16 16 16 16 16 16 16 16 15 15 15 15 15 15 15 15 15 14 14 14 14 14 14 14 14 14 14 14 15 15 15 15 14 14 14 14 14 14 13 14 15 15 15 15 15 16 16 16 16 15 15 14 14 13 13 14 14 13 12 13 13 13 13 13
16 16 16 16 16 15 15 15 15 15 15 15 14 15 16 16 16 16 15 15 15 16 16 16 16 16 15 15 15 15 15 15 15 15 15 15 15 14 14 14 14 14 15 14 14 13 14 14 13 14 14 14 14 14 13 14 13 13 13 13 13 14 14 14 14 15 16 16 16 15 15 15 15 14 14 14 13 13 12 12 12 12 12 12 13
16 16 16 16 15 15 15 15 15 14 14 15 15 15 15 15 15 15 15 15 15 15 15 15 15 15 15 15 14 14 14 14 14 14 14 14 14 14 14 14 14 14 15 15 14 13 13 13 13 13 13 13 13 14 13 13 13 12 13 12 12 12 12 12 14 15 15 15 15 15 15 15 14 14 13 13 12 11 12 12 12 12 12 12 13
16 16 16 16 16 16 15 15 15 15 15 15 15 15 15 15 15 15 14 14 14 14 14 15 15 15 15 15 14 14 13 13 14 14 14 14 14 14 14 14 14 14 15 15 14 14 13 14 13 13 13 13 13 13 13 13 12 12 12 12 11 11 11 12 13 14 14 14 14 14 14 13 13 12 13 12 12 11 11 11 11 12 12 12 12
16 16 16 16 15 15 15 15 15 15 15 15 15 15 15 15 15 14 14 14 13 14 14 14 14 14 14 14 14 13 13 13 14 14 14 14 14 14 14 14 14 15 15 15 15 15 14 14 14 14 13 13 13 13 13 13 12 12 12 11 11 11 11 11 13 13 13 13 13 12 12 12 12 12 12 12 11 11 11 11 11 11 11 11 11
16 16 16 16 15 15 15 15 15 15 14 14 14 14 14 14 14 13 13 13 13 13 13 13 13 13 14 14 14 13 13 14 14 14 14 14 14 14 14 14 14 14 14 14 15 15 15 15 15 14 14 13 13 13 13 12 12 12 12 11 10 10 10 11 11 11 11 12 12 12 11 11 11 11 11 10 9 10 10 11 11 10 10 10 10
16 16 16 16 16 16 16 16 15 15 15 14 14 14 14 14 14 13 13 13 13 13 13 13 14 14 14 14 14 13 13 13 13 14 14 14 14 14 14 14 14 13 13 13 14 14 14 14 15 15 14 13 13 13 13 12 11 11 11 10 10 10 10 10 10 10 10 10 11 11 10 10 9 9 9 9 8 8 9 9 9 9 9 9 9
16 16 16 16 16 16 16 16 16 16 15 15 15 15 15 14 14 14 14 14 14 14 14 14 14 14 14 14 14 13 13 13 13 13 13 13 14 14 13 13 13 13 13 13 13 13 13 13 14 14 13 13 12 12 12 12 11 11 10 10 9 9 9 9 9 9 9 9 9 9 9 8 8 8 8 8 7 7 7 7 7 7 7 7 8
16 16 16 16 16 16 16 16 16 16 16 16 16 16 15 15 15 15 15 15 15 15 15 14 14 14 14 14 14 13 13 13 13 13 13 13 13 14 13 13 13 13 12 12 12 12 12 13 13 13 12 12 12 12 12 12 11 11 11 10 9 9 9 9 9 9 9 9 8 8 8 8 8 7 7 7 7 6 6 6 7 7 7 8 9
16 16 16 16 16 16 16 16 16 16 16 16 16 16 15 15 15 15 15 15 15 15 15 14 14 14 14 14 14 13 13 12 12 12 13 13 13 14 14 14 13 13 12 12 12 12 12 12 12 12 11 11 12 12 11 11 11 11 11 10 10 9 8 8 9 8 8 8 8 8 7 7 7 7 7 7 6 6 6 7 8 8 8 9 9
15 15 16 16 16 16 16 16 16 16 16 16 16 15 15 15 15 15 15 15 15 15 15 14 14 14 14 14 14 13 12 12 12 12 12 12 13 13 14 14 13 13 12 12 11 11 11 11 11 11 11 11 11 11 11 11 11 12 11 11 10 10 8 7 8 8 8 7 7 7 7 7 7 7 6 6 5 5 5 6 7 7 8 8 9
15 15 15 15 15 15 15 15 16 16 16 15 15 15 15 15 15 15 15 15 15 15 15 14 14 14 13 13 13 13 12 12 12 12 12 12 12 13 14 14 13 13 13 12 11 10 10 11 11 10 10 10 10 10 10 10 11 11 11 11 11 10 8 6 6 6 6 6 6 6 6 6 6 5 5 4 4 4 4 4 5 6 7 7 8
13 13 14 14 14 14 14 14 15 15 15 15 15 15 14 14 14 14 15 15 15 15 15 15 14 13 13 12 12 12 12 12 12 12 12 12 12 13 14 14 13 13 13 13 12 10 9 9 9 9 9 10 9 9 9 10 10 10 10 10 10 9 7 6 6 6 5 5 5 5 5 6 5 5 5 5 4 4 4 4 5 5 6 6 6
12 13 13 13 14 14 14 14 14 14 15 15 14 14 14 14 14 14 14 15 14 14 14 14 14 13 13 12 12 12 12 12 11 11 11 11 11 12 13 13 13 13 13 13 12 11 10 8 8 8 8 8 8 8 9 9 8 8 8 8 8 7 6 6 6 6 5 5 6 6 6 7 7 7 6 6 6 5 5 5 5 5 5 6 6
11 12 12 13 13 13 13 14 14 14 14 14 14 14 14 14 14 14 14 14 14 14 14 14 14 13 12 12 12 12 12 12 11 11 11 11 11 11 12 12 12 12 13 13 12 12 10 8 7 7 7 8 8 8 8 8 8 8 7 7 6 6 6 6 5 6 6 6 7 7 7 7 7 7 7 7 6 6 5 5 5 5 5 5 5
11 11 12 12 12 13 13 13 13 13 13 14 14 14 14 14 14 14 14 14 14 14 13 13 13 13 12 12 12 11 11 11 11 11 11 11 11 11 11 11 11 11 12 12 12 11 9 7 7 7 7 7 7 7 7 7 7 6 6 6 6 5 5 6 6 6 6 7 7 7 7 7 7 7 7 6 6 5 5 5 5 5 5 4 4
10 10 11 11 12 12 12 13 13 13 13 13 14 14 14 14 14 14 14 14 14 14 13 13 13 13 13 12 12 11 11 11 11 11 11 11 11 10 10 10 10 10 11 12 11 9 8 7 8 7 7 7 6 6 6 6 6 5 5 5 5 5 5 6 6 6 6 6 6 7 7 7 6 6 6 6 5 5 4 4 4 4 3 3 3
9 10 10 11 11 12 12 12 12 13 13 13 13 14 14 14 14 14 14 14 14 14 14 14 14 14 14 14 13 12 11 11 11 11 11 11 10 10 10 10 10 10 10 10 9 9 8 7 7 6 6 6 5 5 5 5 5 5 4 4 5 5 5 6 6 6 6 6 6 6 6 6 5 5 5 5 4 3 3 3 3 3 2 2 2
8 9 9 10 11 11 12 12 12 13 13 13 13 13 14 14 14 14 14 14 14 14 14 14 14 15 15 14 14 13 12 11 11 11 10 10 10 10 10 9 9 9 9 9 8 8 7 7 6 5 5 5 5 4 4 4 4 4 4 4 5 5 5 5 5 5 5 5 5 5 5 5 4 4 3 3 2 2 3 2 2 2 1 1 1
8 8 9 10 10 11 11 12 12 12 12 13 13 13 13 14 14 14 14 14 14 14 14 14 14 14 14 14 14 13 12 12 11 10 10 10 9 9 9 9 9 8 8 7 7 6 6 6 5 5 4 4 4 4 4 4 4 4 4 5 4 4 4 4 4 4 5 5 4 4 4 3 3 2 2 2 2 2 2 2 1 1 1 1 1
7 7 8 9 9 10 11 11 11 12 12 12 13 13 13 14 14 14 14 14 14 14 14 14 14 14 14 14 14 13 13 12 12 11 10 10 9 9 8 8 8 8 7 6 6 5 5 5 5 5 5 5 5 5 5 5 5 4 5 5 4 4 3 3 4 4 4 4 3 3 2 2 2 2 2 2 2 2 2 2 1 1 1 1 1
6 7 7 8 9 10 10 11 11 11 12 12 12 12 12 13 13 13 13 13 13 13 13 13 13 13 13 14 13 13 13 12 12 11 10 10 10 9 9 8 8 8 7 6 5 5 5 5 5 5 6 6 6 6 6 5 5 4 4 4 4 4 4 4 5 5 4 3 2 2 1 1 1 1 1 1 2 1 1 1 1 1 1 1 1
6 6 7 8 9 9 10 10 11 11 12 12 12 11 11 10 11 12 11 11 11 12 11 11 11 11 12 12 12 12 12 11 11 10 10 9 9 9 8 8 8 8 7 6 6 5 5 6 6 6 6 6 6 6 6 5 5 5 4 3 4 4 3 4 4 4 2 2 1 1 1 1 1 1 1 1 1 1 1 1 1 1 1 1 1
6 6 7 8 8 9 9 10 10 11 11 11 12 11 11 10 10 10 10 10 10 10 10 10 10 10 10 10 10 10 10 10 10 9 9 9 8 8 8 8 7 7 7 6 6 6 7 7 7 6 6 6 6 5 5 5 5 5 4 4 4 3 3 4 4 2 2 2 1 1 1 1 0 0 0 0 0 0 0 0 0 1 1 1 1
5 6 7 7 7 7 8 9 9 10 10 11 11 11 11 11 10 9 9 9 9 9 9 9 9 8 8 9 9 8 9 9 9 9 8 8 8 7 7 7 7 7 6 6 6 7 7 7 7 6 6 6 5 5 4 4 4 4 4 4 4 4 4 4 3 2 2 2 1 1 1 1 0 0 -0 -0 -0 -0 -0 -0 0 0 0 0 0
4 5 6 6 6 7 8 8 9 9 10 10 10 10 11 11 11 10 9 8 8 8 8 8 8 8 8 8 8 8 8 8 8 8 7 7 7 7 6 6 6 6 5 6 7 7 7 7 6 6 6 5 5 4 4 4 4 4 4 4 4 4 4 4 3 2 2 2 1 1 1 1 0 0 -0 -0 -0 -0 -0 -0 0 0 0 0 1
3 4 5 5 5 7 7 8 8 9 9 9 10 10 10 10 10 10 10 9 8 8 8 7 7 7 7 7 8 8 7 7 7 7 7 7 6 6 6 5 5 5 5 5 6 7 6 6 6 5 5 5 4 4 4 4 4 4 4 4 4 4 4 4 3 3 2 2 1 1 1 0 0 0 0 0 -0 -0 -0 -0 -0 0 0 0 0
2 3 4 4 4 6 7 7 8 8 8 8 8 9 9 9 9 9 9 9 9 9 8 8 7 7 7 7 7 7 7 7 6 6 6 6 6 5 5 4 4 4 5 5 6 6 6 6 5 5 4 4 4 4 4 4 4 4 4 4 4 3 3 4 4 3 2 2 2 1 1 0 0 0 0 0 -0 -0 -0 -0 -0 -0 -0 -0 -0
2 3 3 3 4 5 6 7 7 7 7 7 7 8 8 8 8 8 8 8 8 8 8 8 7 6 5 6 6 6 6 6 5 5 5 5 5 5 4 4 4 4 5 5 5 5 5 5 5 5 4 4 4 4 4 4 4 4 3 3 3 3 3 3 3 2 2 2 2 1 1 1 1 0 0 0 -0 -0 -0 -1 -1 -1 -1 -1 -1
2 2 2 2 4 5 5 6 6 6 5 5 6 7 7 7 7 7 7 7 8 8 8 8 7 6 5 4 4 5 5 4 4 4 4 4 4 4 4 4 4 4 4 4 5 5 5 4 4 4 4 4 4 4 4 4 4 3 3 3 3 3 3 2 2 1 1 2 2 1 1 1 1 1 1 0 -0 -0 -0 -1 -1 -1 -1 -1 -1
1 1 1 2 3 4 5 6 6 5 5 5 6 7 7 7 7 6 6 6 6 6 7 7 7 7 6 4 3 3 3 2 2 2 2 2 3 4 4 4 4 4 4 4 4 4 4 4 4 4 4 4 4 4 3 3 3 3 3 3 3 3 2 2 2 2 2 2 2 2 1 1 1 1 0 0 -0 -0 -0 -1 -1 -1 -1 -1 -1
0 1 2 2 3 4 5 5 5 5 5 5 6 6 6 5 5 5 4 5 5 5 5 5 6 6 6 4 2 1 1 1 1 1 1 2 3 4 4 4 4 4 4 4 3 4 4 4 4 4 4 3 3 3 3 3 3 3 3 3 3 3 3 3 3 2 2 2 2 1 1 1 0 -0 -0 -0 -0 -0 -1 -1 -1 -1 -1 -1 -1
1 2 2 3 3 4 4 4 4 4 4 4 3 4 4 3 3 3 4 4 4 4 4 4 4 4 3 2 1 1 1 2 2 1 2 2 3 3 3 3 3 3 3 3 3 3 3 3 3 3 3 3 3 3 3 3 3 3 3 3 3 3 2 2 2 2 1 1 1 1 0 -0 -1 -1 -1 -1 -1 -1 -1 -1 -1 -1 -1 -1 -1
2 3 3 3 3 4 3 3 2 2 2 1 1 1 1 1 2 2 2 3 3 3 2 2 2 1 0 -0 0 1 2 2 2 2 2 2 2 2 2 2 2 2 2 2 3 3 3 3 3 3 3 3 3 3 3 2 3 3 3 2 2 2 2 2 1 0 -0 -0 -0 -0 -1 -1 -2 -2 -1 -1 -1 -1 -1 -1 -1 -1 -1 -1 -1
3 4 4 3 3 3 3 2 1 1 1 0 0 -0 -0 -0 0 1 1 1 1 1 0 0 -0 -1 -1 -1 0 1 1 1 1 1 2 2 2 2 2 1 1 2 2 2 3 3 3 3 3 3 3 2 2 2 2 2 2 2 2 2 1 1 1 1 0 -1 -1 -1 -1 -2 -2 -2 -3 -2 -2 -1 -1 -1 -1 -1 -1 -1 -1 -1 -1
4 4 3 3 3 2 2 2 1 1 0 -0 -1 -1 -1 -1 -1 -0 0 0 -0 -1 -1 -1 -1 -1 -1 -1 0 1 1 1 1 1 1 1 1 1 1 1 1 2 2 2 3 3 3 3 3 3 2 1 1 1 1 1 1 1 1 1 0 -0 -0 -0 -1 -1 -2 -2 -2 -3 -3 -3 -3 -2 -1 -1 -1 -1 -1 -1 -1 -1 -1 -1 -1
3 3 2 2 2 2 2 2 1 1 -0 -1 -1 -1 -1 -1 -1 -1 -1 -1 -1 -1 -1 -1 -1 -1 -1 -1 0 0 1 1 1 1 1 1 1 1 1 1 1 1 2 2 2 2 3 3 2 2 1 0 1 1 1 1 0 0 -0 -0 -1 -1 -1 -2 -2 -2 -2 -3 -3 -3 -3 -3 -3 -2 -1 -1 -1 -1 -1 -1 -1 -1 -1 -1 -1
2 2 2 1 2 1 1 1 1 0 0 -0 -0 -1 -1 -1 -1 -1 -1 -1 -1 -1 -1 -1 -1 -1 -1 -0 0 1 1 1 1 1 0 0 0 0 0 0 0 1 1 1 1 1 2 2 1 0 -0 0 0 0 0 1 1 1 0 0 -1 -1 -2 -2 -2 -2 -3 -3 -3 -3 -3 -3 -3 -2 -2 -2 -1 -1 -0 -0 -0 -0 -1 -1 -1
1 1 1 1 1 1 1 1 0 0 0 1 0 -0 -1 -1 -1 -1 -1 -1 -1 -1 -1 -1 -1 -1 -1 -0 -0 -0 0 0 0 -0 -0 -0 -0 0 0 0 1 1 1 1 -0 0 1 1 0 -0 -0 -0 -0 -0 -0 0 0 0 0 -0 -0 -1 -1 -1 -1 -1 -2 -3 -4 -3 -3 -3 -3 -3 -2 -2 -1 -1 -0 -0 -0 -0 -0 -0 -0
0 0 0 1 1 1 0 0 0 0 0 0 0 0 -0 -0 -1 -1 -1 -1 -1 -1 -1 -1 -1 -1 -1 -1 -1 -0 -0 -0 0 -0 -0 -0 0 0 0 0 1 1 0 -0 -1 -1 -1 -1 -1 -1 -1 -0 -0 0 -0 -0 -0 -0 -1 -1 -1 -0 -0 -0 -0 -0 -2 -3 -2 -2 -2 -3 -3 -3 -3 -2 -1 -1 -0 0 0 0 0 -0 -0
0 0 1 1 2 2 2 1 1 1 1 1 0 1 0 0 -0 -0 -1 -1 -1 -1 -1 -1 -1 -1 -1 -0 -0 -0 0 0 0 0 0 -0 -0 -0 -0 -0 -0 -0 -1 -1 -2 -1 -1 -1 -1 -1 -1 -0 -0 0 0 -0 0 -0 -1 -1 -1 -0 -0 -0 -0 -0 -1 -1 -1 -1 -1 -2 -3 -3 -3 -2 -1 -0 0 0 0 0 0 0 0
1 1 2 2 3 3 2 2 2 3 2 2 1 1 1 1 1 1 0 0 0 -0 -0 -0 -0 -0 -0 -0 -0 -0 0 0 0 -0 -0 -1 -1 -2 -2 -2 -1 -1 -1 -2 -2 -2 -1 -1 -1 -1 -1 -1 -0 -0 -0 -0 0 0 -0 -0 -0 0 -0 -0 -0 -0 -0 -0 -0 -0 -1 -2 -3 -3 -2 -1 -0 0 0 0 0 0 0 0 1
2 2 2 3 3 3 2 2 3 3 3 3 3 2 2 2 2 2 1 1 1 1 1 1 0 0 0 0 0 0 -0 -0 -0 -1 -1 -2 -2 -3 -3 -3 -3 -2 -2 -2 -3 -3 -3 -3 -3 -2 -1 -0 -0 -0 -1 -1 -0 -0 0 -0 0 0 0 -0 -0 -0 -0 -0 -0 0 -0 -1 -2 -2 -1 0 1 1 1 0 0 0 0 1 1
2 2 2 2 3 3 2 2 2 2 2 2 3 3 2 2 2 2 1 1 1 1 1 1 1 0 0 0 -0 -1 -1 -1 -1 -2 -2 -3 -3 -3 -4 -4 -4 -3 -3 -3 -3 -3 -3 -4 -4 -3 -2 -1 -0 -1 -2 -2 -1 -0 -0 -0 -0 -0 -0 -0 -0 0 0 0 0 0 -0 -2 -2 -1 -1 0 0 1 1 1 0 0 1 1 1
Height
809 811 813 814 816 817 819 820 822 823 824 826 828 830 831 832 833 834 835 837 837 839 840 842 843 843 843 844 845 845 846 847 847 848 849 849 850 851 851 852 852 852 852 852 852 852 852 852 853 853 853 853 853 853 853 853 852 852 852 852 852 852 852 852 854 857 860 861 861 861 861 861 861 861 862 861 861 860 860 860 859 859 859 858 857
810 811 812 814 815 817 819 820 821 822 824 826 828 829 831 831 832 833 834 836 837 838 839 840 842 843 843 843 844 844 845 846 846 847 848 849 850 850 851 851 851 852 852 852 852 852 853 853 853 854 854 855 854 854 854 854 853 853 853 852 853 853 853 853 855 856 858 860 861 861 861 861 861 861 861 861 861 861 860 860 860 859 859 859 857
809 811 812 813 815 817 818 819 820 821 823 825 827 828 830 831 831 832 833 835 836 837 838 839 840 841 842 842 842 843 844 845 845 846 847 848 849 850 850 851 851 851 852 852 852 853 853 854 854 855 855 855 855 855 855 855 854 853 854 854 854 855 855 855 855 855 857 858 859 859 860 860 860 860 861 860 860 860 860 860 859 859 859 858 858
809 810 811 812 814 816 817 818 819 820 822 824 826 827 829 830 831 832 833 834 835 836 837 838 839 840 841 841 841 842 842 843 844 845 846 847 848 849 849 850 850 851 851 852 852 852 853 853 854 855 855 855 856 856 856 856 855 855 855 855 855 856 856 856 855 855 856 857 858 858 859 860 860 860 860 860 859 859 859 859 859 858 858 857 857
808 809 811 812 813 815 816 817 818 819 822 823 825 826 827 829 830 831 832 833 834 835 836 837 838 839 839 840 840 840 841 841 842 843 844 845 846 847 848 849 849 850 851 851 852 852 853 853 854 854 855 855 855 856 856 856 856 856 855 855 855 856 856 856 856 855 855 857 858 858 858 859 859 859 859 859 858 858 858 858 858 857 857 856 856
808 809 810 811 812 814 815 816 818 820 822 823 824 825 826 827 829 830 831 832 833 834 835 836 837 838 838 839 839 839 840 840 841 842 843 843 844 845 846 847 848 849 850 850 851 851 852 853 853 853 854 854 855 855 856 857 857 857 856 855 855 856 856 856 855 856 855 856 857 858 858 858 858 858 858 858 858 858 857 857 856 856 856 855 854
808 809 810 810 812 813 815 816 818 820 822 823 824 824 825 826 827 829 830 831 832 833 833 834 835 836 837 838 838 838 839 839 840 840 841 842 843 844 844 845 846 847 848 849 850 850 851 851 852 852 853 853 854 854 855 856 856 856 857 856 856 856 856 856 855 855 855 855 856 856 857 858 858 858 858 858 857 857 857 857 856 855 855 854 853
808 809 809 810 811 813 815 816 816 818 819 821 823 823 824 825 827 829 830 831 832 832 833 833 834 835 836 837 837 837 838 838 839 839 840 841 842 842 843 844 845 846 847 848 848 848 849 850 850 851 852 852 852 853 853 854 854 855 856 856 856 856 856 856 855 855 854 854 854 855 855 856 857 857 857 857 856 855 856 857 856 854 854 853 851
807 808 809 810 811 813 814 815 816 817 818 820 822 823 824 825 826 828 829 830 831 832 833 833 833 834 835 836 836 836 837 837 837 838 839 840 840 841 841 843 844 844 845 846 847 847 847 847 849 850 850 850 850 850 851 852 852 853 854 854 855 855 856 856 855 854 853 853 853 853 854 854 854 855 855 855 855 855 855 856 855 854 853 851 850
807 808 809 811 812 813 814 815 816 817 818 821 823 823 824 825 826 827 828 828 829 832 834 833 833 833 834 835 836 836 836 836 836 837 837 838 839 840 841 842 842 843 844 845 845 845 845 846 847 847 848 848 848 848 849 849 849 851 852 852 853 854 855 856 855 854 853 852 852 852 853 853 854 855 855 855 855 855 855 855 854 852 851 849 848
807 808 810 811 812 813 815 816 817 818 819 821 823 823 824 824 825 826 827 827 828 831 834 833 832 833 833 834 835 835 836 835 835 836 837 837 838 839 840 841 841 842 843 843 844 844 845 845 845 846 846 846 847 846 847 847 847 848 850 850 852 852 853 854 854 853 853 853 853 853 853 854 855 855 855 855 854 854 854 853 852 851 850 848 846
808 809 811 812 813 814 816 817 817 818 819 821 822 823 824 825 825 826 827 828 829 831 832 832 832 833 833 834 835 835 835 835 836 837 837 837 838 838 840 840 841 842 842 843 843 844 844 844 844 845 845 845 846 845 846 846 846 846 847 848 849 850 851 852 852 852 853 853 854 854 854 854 855 854 854 854 854 854 853 852 851 850 849 847 845
810 811 812 813 814 815 816 817 818 819 820 820 821 822 825 826 826 827 828 829 830 831 832 832 832 833 833 834 835 835 836 836 837 837 837 838 838 839 840 840 840 841 842 842 843 843 843 843 843 844 844 844 845 845 845 845 844 845 845 846 847 848 849 850 851 851 852 853 853 853 853 854 854 853 853 853 853 853 852 851 850 849 848 846 844
811 812 812 814 814 816 817 818 819 819 820 821 821 823 825 826 826 826 827 828 829 830 832 832 832 833 833 834 835 836 837 837 837 838 838 838 839 839 839 840 840 840 841 841 842 842 843 843 843 843 843 843 844 844 845 845 844 844 844 845 846 846 848 849 849 850 851 852 853 852 852 853 853 852 852 851 852 852 851 850 850 848 847 845 843
813 813 814 815 815 816 817 818 819 820 821 822 822 823 825 825 825 826 827 828 829 830 832 833 833 834 834 835 836 837 837 838 838 838 838 838 839 839 839 839 840 840 840 840 841 841 842 842 842 842 842 842 842 842 843 844 844 844 844 845 846 846 846 847 848 849 850 851 851 851 851 851 851 851 850 850 850 850 850 849 848 847 845 843 840
814 815 815 816 816 817 817 818 819 820 821 822 823 824 824 825 826 826 827 828 829 830 832 833 834 834 835 836 836 837 837 838 838 838 838 839 839 839 839 839 839 840 840 840 840 840 841 841 841 842 841 841 841 841 842 843 844 844 844 845 845 845 845 846 847 848 849 849 850 850 850 850 849 849 849 849 849 849 849 848 846 845 843 840 837
816 816 816 817 817 817 818 819 819 820 821 822 822 824 825 825 826 826 827 828 829 830 832 832 834 834 835 836 836 837 838 838 838 838 838 839 839 839 839 839 839 840 840 840 840 840 840 840 841 841 841 841 841 841 841 842 843 844 844 845 846 846 846 846 847 848 848 848 848 848 848 848 847 847 847 847 847 847 847 846 844 843 841 838 835
817 817 818 817 818 818 819 819 820 820 821 821 822 823 824 825 825 826 827 828 829 830 831 832 833 834 835 836 836 837 837 837 838 838 838 838 839 838 838 838 839 839 839 840 840 840 839 840 840 841 841 841 841 842 842 842 843 844 844 845 845 846 846 846 847 847 847 847 847 846 846 845 845 845 845 845 844 845 845 844 842 841 839 837 834
818 818 819 819 819 819 820 820 820 820 821 821 822 823 823 824 825 825 826 827 828 829 830 831 832 833 834 835 835 836 836 837 837 837 838 838 838 838 838 838 838 839 839 839 840 840 840 840 840 840 841 841 841 842 842 843 843 844 844 844 844 846 847 846 846 846 846 846 845 845 844 843 843 842 842 841 841 841 841 841 841 840 838 835 834
819 819 820 819 820 820 820 820 820 820 820 821 821 822 823 823 824 824 825 827 828 829 829 830 832 833 834 834 835 835 836 836 836 837 837 837 838 838 838 838 838 838 839 839 839 840 840 840 840 840 840 841 841 842 842 843 843 844 844 844 844 846 846 846 845 845 845 845 844 844 843 842 842 841 841 840 839 839 839 839 839 839 837 835 833
820 820 820 820 820 820 820 820 820 820 820 820 821 821 822 822 823 824 825 826 827 828 829 829 831 832 833 833 834 834 835 835 835 836 836 836 837 837 837 837 838 838 838 838 838 839 840 840 840 840 841 841 841 842 842 843 843 844 844 844 844 845 845 845 844 844 844 844 843 842 841 841 840 840 840 839 838 838 838 838 838 837 836 834 832
820 820 820 820 819 819 819 819 819 819 819 819 820 821 821 822 823 823 824 825 826 827 827 828 829 830 831 832 832 833 833 834 834 835 835 835 836 836 837 837 837 837 837 837 838 839 839 839 839 840 841 841 841 842 842 842 843 843 843 843 844 844 844 844 844 843 843 843 842 841 840 840 839 839 838 838 837 837 837 836 836 835 834 832 830
820 819 819 819 818 818 818 818 818 819 819 819 819 819 820 821 821 822 823 823 824 825 825 826 827 828 829 830 830 831 832 832 833 833 833 834 834 835 835 836 836 837 836 836 837 839 839 838 839 840 840 841 841 841 842 842 842 842 842 843 843 843 843 843 843 843 842 842 841 840 839 839 838 837 837 837 836 836 835 834 833 832 831 829 828
820 819 819 818 817 817 817 816 817 817 817 818 818 818 818 819 819 820 821 821 822 822 823 824 825 825 826 827 828 829 830 831 831 831 832 832 833 833 834 834 835 835 835 836 837 838 838 838 838 839 840 840 841 841 841 841 842 842 842 842 842 842 842 843 843 842 841 841 840 839 838 838 837 836 836 836 835 835 834 832 831 830 828 826 825
819 818 817 817 816 815 815 814 814 814 815 815 815 816 816 817 817 818 818 819 819 819 820 820 821 821 822 823 824 826 828 829 829 829 830 830 831 831 832 833 833 834 835 835 836 836 837 837 838 839 839 840 840 840 841 841 841 841 841 841 841 842 842 842 841 841 840 840 839 838 837 837 836 835 835 835 834 832 831 829 828 827 826 824 823
817 817 816 815 815 814 813 813 812 812 812 812 812 813 813 813 814 815 815 816 816 816 816 817 817 817 818 819 821 823 825 826 826 827 827 828 829 830 830 831 832 833 833 834 835 835 836 837 838 839 839 840 841 841 841 840 840 841 840 841 841 841 841 841 841 840 840 839 839 838 837 836 836 834 833 833 832 830 829 828 826 825 824 822 820
816 815 814 814 813 812 811 811 810 810 810 810 810 810 810 810 811 811 812 812 812 812 813 813 814 815 815 816 818 820 822 823 823 824 826 827 828 828 829 829 830 831 833 833 834 835 836 837 838 839 839 840 840 841 840 840 840 841 841 841 841 841 841 840 840 839 839 838 838 837 836 836 835 833 832 831 830 828 827 826 825 823 822 821 819
813 813 812 812 811 810 809 809 808 808 807 807 807 806 806 807 807 807 808 809 809 809 810 811 812 812 813 814 816 818 819 819 820 822 824 825 826 827 827 828 829 831 832 833 834 835 836 837 838 839 840 840 840 840 840 841 841 841 841 841 841 840 840 839 838 838 838 838 837 837 836 835 833 832 831 830 828 827 826 825 823 822 820 819 817
811 810 810 809 808 807 807 806 805 805 804 804 804 804 804 804 804 805 805 805 806 807 808 809 810 811 811 812 814 815 816 817 817 819 822 823 825 826 826 827 829 830 831 832 833 835 836 838 839 839 840 840 840 840 841 841 841 841 840 840 840 840 839 838 837 837 838 837 837 836 835 833 832 831 830 828 827 826 825 823 822 820 819 818 816
808 807 807 806 805 804 804 803 802 802 801 801 801 801 801 801 802 803 803 804 805 806 807 808 810 810 811 812 813 814 815 815 816 818 820 821 823 824 825 826 827 828 829 831 833 835 836 837 838 838 839 839 839 840 840 840 840 840 840 840 839 839 838 838 837 837 837 837 836 835 834 833 831 830 828 827 826 824 823 822 821 819 817 816 814
805 804 804 803 802 802 801 800 799 799 798 798 798 798 798 799 800 801 801 802 803 805 806 807 809 810 811 812 813 813 814 815 816 817 819 820 821 822 824 825 826 827 829 831 833 834 835 836 837 837 838 838 839 839 840 840 840 840 839 839 839 838 838 837 836 837 836 835 835 834 833 832 830 829 828 826 825 823 822 820 819 817 816 814 812
804 802 801 801 800 800 799 798 797 797 796 796 796 796 796 796 797 798 799 800 802 803 804 805 807 809 810 811 812 812 813 813 815 816 817 818 819 821 822 824 826 827 829 831 833 833 834 835 836 836 837 838 838 839 839 839 839 839 839 838 838 837 837 836 836 836 835 834 834 833 832 831 829 828 827 825 823 822 820 819 817 816 814 812 811
802 801 800 799 798 797 796 796 795 794 793 793 793 794 794 794 794 796 797 798 800 801 802 803 805 807 808 808 809 810 811 812 813 814 816 817 818 820 821 823 825 827 828 830 832 832 833 834 835 836 836 837 838 838 838 839 839 838 838 838 837 836 836 835 835 835 834 833 833 831 830 829 828 826 825 824 822 820 819 817 816 814 812 811 809
801 800 799 798 797 795 794 793 792 791 791 791 791 791 792 792 793 794 794 796 797 798 800 801 803 804 806 806 807 808 809 810 811 812 814 815 816 818 820 823 825 827 828 830 831 831 832 833 834 835 836 837 837 838 838 838 838 838 838 837 836 835 835 834 834 834 833 832 831 830 829 828 827 825 823 822 820 819 817 815 814 813 811 809 807
800 799 798 797 796 794 792 791 791 791 791 791 790 791 791 791 792 793 793 794 795 796 797 799 800 801 802 803 804 805 806 807 808 810 811 813 814 816 819 822 824 826 828 829 830 830 831 833 833 834 835 836 837 837 837 837 838 837 837 836 835 835 834 834 833 833 832 831 830 829 828 827 825 824 822 820 819 817 816 814 813 811 810 808 806
798 797 796 795 794 792 791 790 790 791 791 791 790 790 790 791 791 792 792 793 794 795 796 797 798 799 800 800 801 802 803 805 806 808 809 811 812 815 818 820 822 825 827 829 830 830 831 832 833 834 834 835 836 836 837 837 837 836 836 835 835 835 834 833 833 832 831 830 829 828 827 825 824 822 820 819 817 816 814 813 811 810 808 807 805
797 796 795 794 793 792 791 790 790 790 791 791 790 789 789 789 790 790 791 791 792 793 794 795 796 797 798 799 799 799 801 802 804 806 808 810 812 815 818 820 821 823 825 827 829 830 830 832 833 833 834 834 835 836 836 836 836 836 835 835 834 834 833 832 832 831 830 829 828 826 825 824 822 821 819 817 816 814 813 812 810 808 806 805 803
795 794 794 793 792 792 790 789 789 789 789 789 788 787 787 787 788 789 790 790 791 792 792 793 794 795 796 797 798 798 798 800 803 805 807 810 813 815 817 819 821 823 824 826 828 830 830 831 832 833 833 834 835 835 836 836 835 835 835 834 834 833 832 831 831 830 829 828 827 825 824 823 821 819 818 816 815 813 812 810 809 807 805 803 801
794 793 793 792 792 791 790 789 789 789 789 788 787 787 786 787 788 789 789 790 790 791 792 792 793 793 794 796 798 798 798 799 801 803 806 810 813 815 816 818 821 822 823 825 828 829 830 831 832 833 833 834 834 835 835 835 835 834 834 834 833 832 832 831 831 830 829 827 826 825 823 822 820 819 817 816 814 812 811 809 807 805 803 801 799
793 792 792 792 791 791 791 790 790 790 789 788 788 787 787 787 787 788 788 788 788 789 790 791 792 793 794 795 796 797 797 798 800 803 806 809 812 814 816 818 820 822 823 825 827 829 830 831 831 832 833 833 834 835 835 834 834 834 834 833 832 832 831 831 830 829 828 827 826 825 823 822 820 818 817 815 813 812 810 808 806 804 802 800 797
791 791 791 792 791 791 791 791 790 790 789 788 787 787 786 786 786 786 787 787 787 788 789 790 791 792 793 794 795 796 797 798 800 803 806 808 811 814 816 817 819 822 824 826 827 829 830 831 831 832 832 833 834 834 834 834 834 834 833 833 832 832 831 830 830 829 827 826 825 824 823 821 819 817 816 814 812 811 809 807 804 802 800 798 796
791 791 791 791 791 791 791 791 790 790 789 788 787 786 785 785 785 786 786 786 787 788 789 790 791 792 792 793 795 796 797 799 800 803 807 809 811 814 817 819 820 823 825 826 828 829 830 830 831 831 832 833 834 834 834 834 834 834 833 832 832 831 830 830 829 828 826 825 825 824 822 820 818 816 815 813 811 810 808 806 803 801 799 797 795
791 791 791 791 792 792 792 792 791 790 789 788 787 786 785 785 785 786 786 787 787 788 789 790 791 792 793 795 796 797 799 801 803 806 809 811 813 816 818 820 822 824 826 827 829 830 830 830 831 832 833 833 833 833 834 834 834 833 833 832 831 831 830 829 828 827 825 824 823 822 820 819 817 816 814 812 811 809 807 805 802 800 798 796 794
792 792 792 792 792 793 793 793 792 791 790 790 789 787 787 787 787 787 787 788 788 789 790 791 792 794 795 797 798 799 801 803 806 808 811 813 815 818 820 821 823 825 827 828 829 830 830 830 831 832 833 833 833 833 834 833 833 832 832 831 831 830 829 828 827 826 824 823 822 821 820 818 817 815 813 811 810 808 805 803 801 799 797 795 793
793 793 793 793 793 793 794 794 793 793 792 791 790 790 790 789 789 789 789 789 790 791 792 793 795 796 798 800 801 802 804 806 809 811 813 815 817 819 821 822 824 826 827 828 829 829 830 831 832 832 832 833 833 833 833 833 832 832 831 831 830 829 828 827 826 825 823 822 821 820 819 817 816 814 812 810 809 807 805 803 801 798 796 795 793
794 793 794 794 794 794 795 795 794 794 794 793 793 792 792 792 792 792 792 792 793 794 795 797 799 800 801 803 804 806 808 810 812 814 815 817 819 821 822 824 825 826 827 828 828 829 830 831 832 832 832 832 833 833 833 832 832 831 830 830 829 829 828 826 825 824 822 821 820 819 818 816 814 813 811 810 808 806 804 802 800 798 796 794 792
794 794 795 795 795 795 796 796 796 796 796 795 795 795 795 795 795 795 795 796 797 797 799 800 801 803 804 806 807 809 811 813 815 817 818 820 821 822 824 825 826 827 828 828 829 830 830 830 831 831 832 832 833 833 832 832 831 831 830 830 829 828 827 826 824 823 822 820 819 818 816 815 813 812 810 809 807 805 803 801 799 797 795 793 791
796 796 796 796 796 796 797 797 797 797 797 797 797 798 798 798 799 799 799 800 800 801 802 803 804 806 807 809 811 812 814 815 817 818 820 821 822 823 824 826 826 827 828 828 829 829 830 830 831 832 832 832 832 832 832 831 831 830 830 829 828 827 826 825 824 822 821 820 818 817 815 814 813 811 810 808 806 805 803 801 798 797 795 793 791
798 798 798 798 798 798 798 798 798 798 798 799 799 799 800 800 801 801 802 803 804 804 805 806 807 809 810 812 813 815 816 817 818 820 821 822 823 824 825 825 826 827 828 829 829 829 830 831 831 831 831 832 832 831 831 831 830 829 829 828 827 826 826 824 823 822 820 819 817 816 815 813 812 811 810 808 806 804 802 800 798 797 795 793 791
800 800 799 799 799 799 799 800 800 800 800 800 800 801 801 801 802 803 804 805 805 806 807 808 810 811 812 814 815 816 817 818 820 821 822 823 823 824 825 826 827 828 828 829 830 830 831 831 831 831 831 831 831 831 830 830 829 829 828 827 826 825 825 823 822 821 820 818 817 816 814 813 812 811 810 808 806 804 802 800 798 797 795 793 791
801 801 801 801 801 801 801 801 801 802 802 802 802 802 803 804 804 805 806 806 807 808 809 810 811 813 814 815 816 817 818 819 820 821 822 823 824 824 825 826 827 827 828 829 830 831 831 831 831 831 830 830 830 830 830 829 829 828 827 826 825 824 823 822 821 820 819 818 816 815 814 813 812 811 809 808 806 804 802 800 798 797 795 793 791
Wind_Speed
8 10 11 12 14 15 14 13 12 10 12 15 16 16 16 15 15 15 14 14 14 13 12 11 11 11 10 10 9 9 8 7 6 5 5 5 4 4 4 3 3 4 4 3 4 3 3 3 4 3 3 3 3 3 4 4 4 4 4 4 4 3 2 3 6 7 6 4 4 4 3 2 2 3 3 2 2 2 2 2 2 3 1 3 6
7 9 10 11 11 12 11 12 13 11 12 15 16 15 15 15 15 15 15 14 14 14 13 12 11 10 10 10 9 8 8 7 6 5 5 5 4 3 3 2 2 2 2 2 2 2 2 2 2 2 2 2 1 1 2 2 2 3 4 4 5 4 3 4 6 7 6 5 4 4 3 2 1 2 2 2 1 0 1 1 1 2 2 3 4
7 8 9 10 11 11 11 12 13 13 14 15 15 15 15 14 14 15 14 14 13 13 13 13 12 11 10 10 9 8 7 7 6 5 5 4 3 2 2 2 1 2 1 1 2 2 1 1 1 1 1 1 0 0 1 1 1 2 3 3 4 5 4 3 4 5 6 6 5 5 4 2 1 2 2 2 1 0 1 0 1 1 2 4 3
7 7 9 10 12 12 11 12 14 14 14 14 15 15 14 14 14 14 14 13 13 12 13 13 12 12 11 11 10 10 9 8 6 5 5 4 2 2 2 2 2 2 2 2 2 2 2 2 2 2 2 2 2 2 1 2 2 2 3 3 4 5 4 3 2 2 4 5 4 4 4 3 2 2 1 1 1 1 1 1 2 2 3 5 4
6 7 9 10 11 12 12 12 13 14 13 13 14 15 15 14 14 14 14 14 13 12 12 12 12 11 11 11 11 10 9 9 7 7 6 4 3 3 4 4 4 4 4 3 3 3 3 4 4 4 4 4 4 3 2 3 3 2 3 4 5 5 4 3 2 2 3 4 5 4 4 4 3 2 1 1 1 2 2 2 3 3 3 5 5
6 8 9 10 11 11 11 10 10 11 11 11 12 14 14 14 14 14 14 13 13 12 12 12 11 10 10 9 9 9 8 7 7 7 6 5 4 4 4 5 5 5 5 4 4 4 5 6 6 5 6 6 5 5 4 4 5 5 5 5 4 5 4 4 3 3 3 3 4 4 4 4 3 2 1 2 3 3 4 5 5 4 4 6 7
7 7 8 9 10 10 10 9 8 9 9 10 10 11 12 13 14 14 13 13 12 12 11 11 11 10 9 9 8 8 7 6 6 6 5 5 5 4 4 5 5 5 6 5 4 4 4 5 6 7 8 7 6 7 6 6 7 7 6 6 5 5 6 6 5 5 4 4 4 4 4 4 3 3 2 1 2 3 3 7 8 7 7 8 9
7 6 7 8 9 10 10 10 11 11 10 10 10 10 11 12 13 12 12 11 10 10 10 10 9 8 9 8 7 7 6 6 5 5 5 5 4 4 3 4 4 5 5 4 3 4 5 6 6 6 7 7 7 8 7 7 7 7 8 8 7 7 8 7 7 7 6 6 6 6 6 5 4 3 3 3 3 3 4 7 9 9 9 10 11
7 7 7 6 6 7 9 10 11 10 8 8 9 10 10 11 11 10 9 7 7 7 7 8 8 7 7 7 6 6 5 5 6 6 6 4 3 3 3 4 4 4 4 4 4 6 8 8 7 7 8 9 10 10 10 11 11 9 9 11 10 8 8 8 8 9 8 9 9 7 8 9 7 5 5 4 3 4 5 6 8 10 11 12 12
8 8 7 7 6 6 7 8 8 7 7 7 9 10 10 10 10 10 9 8 7 7 6 6 7 7 7 6 6 5 4 5 6 6 5 4 3 2 3 3 3 3 4 4 4 5 7 7 7 8 9 9 11 12 11 14 17 15 12 11 10 10 10 10 11 10 9 9 9 8 8 8 6 4 5 4 3 3 5 6 8 10 11 12 13
7 8 8 7 7 6 6 6 6 6 7 7 8 8 8 9 9 9 9 8 8 9 8 5 5 5 6 6 5 4 4 4 4 3 3 3 3 3 2 1 1 2 2 3 3 4 4 3 4 5 5 5 8 9 9 12 15 17 17 16 14 13 12 12 11 10 9 8 6 5 6 6 5 5 6 5 3 4 5 7 9 10 11 12 14
6 7 7 6 6 5 4 4 4 4 5 5 5 5 5 6 7 7 7 6 6 6 6 4 4 4 5 6 5 6 6 7 7 6 5 4 4 3 1 0 1 1 1 1 1 2 2 1 1 1 2 3 5 6 7 8 9 12 15 18 18 17 16 15 12 8 6 6 5 5 5 5 6 6 6 5 5 6 7 8 9 10 11 12 14
7 7 6 5 5 4 4 4 4 4 4 4 5 5 5 5 6 7 7 6 5 5 4 5 6 6 7 8 8 9 10 9 8 6 5 4 3 3 2 1 0 0 1 1 1 1 1 2 2 1 2 2 3 3 5 6 7 8 11 14 17 18 18 17 16 12 7 6 6 6 5 4 4 4 6 6 7 8 9 10 11 11 12 13 14
9 8 8 7 6 5 5 5 5 5 5 5 5 7 7 7 7 7 7 8 8 7 7 7 8 9 9 10 9 9 9 8 7 6 5 3 2 2 2 1 1 0 0 1 2 2 2 3 3 3 2 1 1 2 3 4 5 5 5 8 10 11 12 12 12 10 8 6 4 4 5 5 4 5 9 10 8 8 9 11 12 13 15 16 17
9 9 9 8 8 7 7 6 6 6 6 6 7 8 8 8 9 8 8 9 10 10 9 10 10 9 9 9 9 9 9 8 7 6 5 4 3 3 2 2 2 1 1 0 1 2 2 3 4 3 1 1 2 2 1 2 2 2 4 6 6 7 9 10 9 7 6 5 3 2 4 7 5 7 10 10 9 9 10 12 14 15 16 17 17
8 8 8 8 8 8 8 8 8 8 8 8 8 9 9 9 9 9 9 10 10 10 10 10 9 9 8 8 8 9 9 8 7 7 6 5 5 4 2 2 3 3 2 2 2 1 1 1 1 1 3 3 2 2 1 3 3 4 6 7 7 7 9 10 9 8 7 6 5 5 7 9 9 10 11 11 11 10 11 13 14 14 14 15 14
7 6 6 6 6 6 7 8 9 9 9 8 8 9 9 9 9 9 9 9 9 9 9 9 8 8 8 7 7 8 9 8 7 6 6 6 5 3 1 2 3 3 3 3 3 2 3 3 3 4 5 5 5 5 3 3 4 4 5 6 6 6 6 7 7 7 7 8 8 9 9 10 11 12 13 14 14 11 10 12 12 12 13 14 15
4 4 3 4 4 4 4 6 7 7 7 8 8 8 8 9 9 9 9 9 9 9 9 8 8 8 7 7 7 8 8 8 6 6 5 6 5 2 0 2 3 3 4 4 4 4 5 6 5 5 4 5 5 5 5 4 3 4 4 5 5 4 4 4 5 6 8 8 9 10 11 12 13 15 14 14 13 10 10 11 12 13 14 15 15
3 2 1 1 1 1 3 4 4 6 7 7 8 8 9 9 9 9 8 9 9 9 8 8 8 7 7 8 8 7 8 8 7 6 5 5 5 2 1 1 2 2 3 4 6 6 6 5 4 4 4 4 4 4 5 4 2 3 3 5 5 3 2 2 2 4 6 7 8 9 11 12 13 13 12 13 13 12 11 12 12 13 14 14 15
3 3 2 3 4 5 6 7 7 8 9 9 10 10 10 12 12 10 10 9 9 8 8 7 7 7 7 9 8 7 7 8 7 6 5 5 5 2 1 1 1 1 2 4 5 7 6 5 5 5 4 4 5 4 5 5 3 2 1 3 3 2 1 2 4 5 5 7 8 9 9 10 10 10 10 11 12 12 10 11 11 12 14 15 15
5 4 4 5 6 6 7 7 8 8 8 9 10 10 11 12 13 12 11 10 9 8 8 7 7 7 8 8 8 8 8 8 7 6 6 5 4 3 1 1 1 1 1 2 4 6 7 7 7 6 5 4 4 3 3 4 2 1 0 1 3 3 2 3 6 8 7 7 8 9 9 9 9 10 9 10 11 10 10 11 13 15 16 17 18
6 6 5 6 6 6 7 8 9 9 9 8 10 11 11 11 12 12 11 11 11 11 10 9 9 9 9 8 8 9 10 9 8 7 6 5 4 2 1 1 2 2 2 2 2 4 7 7 7 7 6 4 3 2 1 1 1 2 2 2 3 4 4 3 4 6 7 7 8 9 10 10 10 10 10 10 10 10 11 13 15 17 18 19 20
8 8 8 7 7 7 7 8 9 11 11 11 11 12 12 12 13 13 13 12 13 13 12 11 10 10 10 10 9 9 10 9 8 6 5 4 4 4 4 5 5 3 3 3 3 4 7 8 8 7 5 3 2 1 0 1 2 2 2 3 4 5 4 3 5 6 7 8 9 9 10 10 10 9 9 9 9 11 13 16 18 19 19 19 20
9 10 9 9 8 8 8 8 9 11 13 14 15 14 13 14 15 15 14 14 14 13 13 13 12 12 12 12 11 10 9 8 7 6 4 4 5 6 7 7 8 6 3 2 4 7 8 8 8 7 5 4 2 1 0 1 2 2 3 5 5 5 3 4 5 6 7 8 8 9 9 8 8 9 10 11 13 15 16 17 17 17 17 18 19
11 11 11 10 10 10 10 9 10 11 13 15 17 17 16 16 16 15 15 15 14 14 14 14 14 13 12 11 10 10 9 8 6 5 5 5 5 6 7 8 9 8 5 4 7 9 9 8 7 6 5 3 2 1 1 2 3 4 5 5 4 2 3 4 5 6 7 7 7 8 8 8 8 10 12 14 15 15 15 14 14 15 15 16 17
12 12 13 12 12 12 11 11 11 11 13 15 17 19 18 18 18 17 17 16 16 16 16 15 15 14 13 11 10 9 9 8 6 5 6 6 6 6 8 9 10 10 9 8 8 9 8 8 7 6 5 4 4 3 1 3 5 6 7 5 2 1 2 4 4 5 5 6 7 8 8 9 10 12 13 13 13 13 13 13 14 14 14 15 15
12 13 13 13 13 13 13 12 12 11 12 13 16 18 19 20 19 19 18 18 18 18 17 17 16 15 14 12 11 9 9 8 7 7 6 6 7 8 9 10 10 10 10 9 9 10 10 9 8 6 4 3 2 1 1 3 4 4 4 3 1 1 2 3 3 4 5 7 8 9 10 11 12 12 11 11 12 12 12 12 13 14 14 15 16
13 13 14 14 15 15 14 13 13 13 14 14 15 16 18 19 20 21 19 18 18 18 18 18 18 17 16 15 13 11 10 9 8 8 7 8 8 8 10 11 10 10 11 12 12 12 11 9 7 5 4 2 2 1 0 1 1 1 2 2 2 2 3 4 3 4 6 8 9 10 11 11 11 11 12 12 12 12 12 12 13 14 14 15 16
14 15 15 15 16 16 15 15 15 15 16 14 13 13 15 16 18 17 15 14 15 13 12 12 13 13 14 13 12 11 10 8 8 8 8 9 10 10 10 11 11 11 13 14 13 12 10 8 7 6 5 4 3 2 1 1 1 1 1 1 2 2 3 4 5 6 8 8 9 10 11 11 12 12 12 13 13 13 13 13 14 14 15 15 16
15 16 15 15 16 16 16 16 16 16 16 16 14 13 14 16 18 15 11 12 15 14 11 9 8 7 8 8 8 9 7 4 6 7 7 9 12 13 12 13 14 14 15 15 13 11 10 9 7 6 5 4 3 2 1 1 1 1 1 1 2 2 3 4 5 7 8 8 9 10 11 12 12 12 12 13 14 13 13 14 14 15 15 16 16
15 15 14 14 15 15 15 16 16 16 16 17 16 14 12 14 17 17 14 13 15 15 15 15 13 12 11 8 6 7 9 8 8 9 8 9 13 15 15 16 16 15 15 14 12 10 10 9 7 6 5 4 3 2 1 1 0 1 1 1 1 1 3 5 6 7 8 8 9 10 11 12 12 12 13 14 14 14 14 14 14 15 16 16 17
15 15 14 14 14 14 15 15 16 16 16 16 16 16 14 12 13 13 13 14 15 14 15 16 14 14 15 13 8 7 10 13 12 11 9 10 13 16 16 16 15 15 15 14 11 9 9 8 7 6 5 4 3 3 2 1 1 1 1 2 2 2 4 5 6 7 8 9 10 11 11 11 12 13 14 14 14 15 15 14 14 15 16 16 17
15 15 14 14 14 15 15 15 15 16 16 16 15 15 16 15 13 11 11 12 13 15 16 16 16 16 16 16 14 12 13 16 15 12 11 11 14 16 16 15 15 16 17 14 10 9 9 8 7 6 5 5 4 4 3 2 1 1 1 2 3 3 5 6 6 7 8 9 10 11 11 12 13 13 14 14 14 14 15 15 16 16 16 16 17
14 14 14 14 14 15 14 14 14 14 13 13 12 11 12 12 12 11 11 10 10 12 13 15 18 19 18 18 18 17 17 18 18 15 13 12 14 17 18 17 17 18 16 12 9 9 9 8 7 6 5 5 5 4 3 2 1 1 1 3 3 4 6 7 7 8 9 10 10 10 11 12 13 13 14 14 14 14 15 15 16 15 16 16 17
13 14 13 13 13 14 13 12 12 11 10 10 10 9 9 9 9 9 10 10 9 9 10 9 11 14 17 17 17 17 18 19 18 17 15 14 17 20 21 20 19 18 14 10 9 9 9 8 7 7 6 6 5 4 3 2 1 1 2 3 4 4 5 6 7 8 9 10 10 11 11 12 13 13 14 14 14 14 15 15 15 15 16 16 16
14 12 11 11 11 12 12 11 10 9 9 8 8 8 8 8 7 8 8 9 9 9 9 8 7 9 13 15 15 16 16 17 17 16 14 16 21 23 22 20 18 16 12 9 8 9 8 8 8 7 7 7 5 4 3 2 0 1 3 4 4 4 5 6 7 9 9 9 10 11 11 12 13 14 14 15 15 15 15 15 15 15 16 16 17
12 11 10 10 9 9 9 9 8 7 7 7 8 8 8 9 10 10 11 12 12 13 13 12 9 8 8 9 12 14 14 13 14 14 15 19 23 22 18 16 16 14 12 10 9 9 8 8 8 8 7 6 5 4 2 1 1 2 3 4 3 4 6 6 5 7 9 10 10 11 12 13 14 14 15 15 15 15 15 15 15 16 17 17 17
12 12 10 9 8 7 8 8 7 7 8 9 10 12 12 12 13 13 13 14 14 15 15 15 14 13 9 5 7 11 14 15 15 16 19 23 23 19 15 15 15 14 13 11 10 9 9 9 8 7 7 6 4 3 2 1 1 2 3 4 3 4 6 6 5 6 9 11 11 12 13 13 14 14 14 14 15 15 16 16 16 16 17 17 17
11 10 7 6 6 5 6 6 6 8 9 11 12 13 13 13 13 13 13 13 13 13 13 13 14 15 12 7 8 12 16 17 18 21 24 23 18 15 15 15 14 13 13 12 10 9 9 9 8 7 6 5 4 3 1 1 2 3 3 4 4 4 6 6 6 7 9 11 12 13 13 14 14 14 14 13 14 15 15 16 16 16 16 17 17
8 6 5 4 4 3 4 6 7 8 9 10 11 11 11 11 12 12 12 13 13 12 12 11 11 10 9 9 11 14 15 16 18 21 21 19 15 14 15 14 13 12 12 11 10 9 9 9 8 7 6 5 3 2 2 2 3 3 3 4 5 5 5 5 6 7 8 9 11 13 13 13 14 14 13 13 13 14 15 15 16 16 16 16 17
7 5 3 0 2 3 4 5 6 7 8 8 8 8 8 9 10 10 10 10 10 9 9 8 7 7 8 11 13 15 15 17 19 20 19 17 16 15 14 14 14 12 11 10 10 9 9 8 8 7 6 4 3 2 2 3 3 4 4 5 5 5 6 5 6 7 8 8 10 12 13 12 12 13 14 14 15 15 14 15 16 16 15 16 16
4 1 2 2 3 3 4 5 6 6 7 7 6 5 5 5 6 7 7 7 8 8 8 7 6 8 11 14 16 17 18 19 22 22 20 19 19 16 14 14 13 11 10 10 10 9 9 8 7 6 6 4 3 3 3 3 4 4 5 5 5 6 6 5 6 8 9 8 8 10 11 12 12 13 14 15 15 15 14 15 16 16 15 15 16
0 2 2 2 3 3 4 5 6 6 7 6 4 2 0 2 4 5 7 9 9 9 10 10 11 12 15 16 18 21 22 23 23 21 18 18 18 16 13 12 11 10 10 10 10 9 8 8 7 6 5 5 4 4 3 3 4 5 5 5 6 6 6 6 7 9 9 9 9 10 11 11 12 13 15 15 15 15 15 15 16 16 16 16 16
1 1 1 3 4 4 4 5 6 6 6 6 6 7 7 7 8 10 11 11 11 12 13 13 13 14 16 17 20 23 24 23 22 21 19 18 17 14 12 11 10 10 10 10 9 8 8 7 6 5 5 4 4 3 3 3 4 6 6 6 6 7 7 8 8 9 10 10 9 9 10 11 12 13 14 15 14 15 16 16 16 16 16 16 15
1 1 2 4 4 4 4 5 5 6 6 7 8 10 11 11 11 12 12 14 15 15 16 15 14 15 17 19 20 21 22 22 22 21 20 18 15 12 11 10 10 9 9 9 8 8 8 7 5 5 4 3 3 3 3 4 5 6 7 8 8 8 9 10 10 10 10 10 9 9 10 11 12 13 14 15 15 15 16 16 17 17 17 16 15
2 3 4 4 4 4 4 4 4 5 6 7 9 10 11 12 13 13 13 14 14 14 13 13 13 14 16 19 20 21 21 20 19 18 16 15 13 11 10 10 9 9 8 8 7 8 8 6 5 4 3 2 1 2 4 5 5 7 8 8 9 9 10 11 12 12 11 10 9 10 11 12 12 13 14 14 15 16 16 16 17 17 17 16 16
5 5 5 5 5 5 5 4 4 4 5 7 8 9 10 11 12 13 14 15 14 13 11 10 11 13 15 17 18 18 17 16 15 14 13 12 11 11 10 9 9 8 8 7 7 7 6 5 4 3 2 1 1 2 4 4 5 6 7 7 9 10 11 12 12 12 12 12 11 11 12 13 12 13 14 15 16 17 17 17 17 16 16 16 15
6 6 6 6 6 7 6 5 5 6 6 7 8 9 9 10 10 11 11 13 14 13 12 12 14 16 16 15 15 15 15 15 13 12 11 11 10 10 10 9 8 8 8 7 7 7 5 4 3 1 1 0 1 2 4 4 5 6 6 7 8 10 11 11 12 12 13 13 12 12 13 13 12 12 14 16 17 17 17 17 16 16 16 15 14
6 7 7 8 8 9 8 7 7 7 8 9 9 9 10 10 10 10 10 11 12 12 12 12 13 14 14 15 15 15 14 13 12 11 10 10 9 8 9 9 8 8 7 6 6 5 4 3 2 1 1 1 0 2 3 4 5 6 6 7 9 10 10 10 11 12 13 13 12 12 12 11 11 12 15 16 16 16 16 16 16 16 15 14 14
7 7 8 9 9 9 9 9 8 9 9 9 10 10 11 10 10 11 11 11 11 11 12 12 13 14 14 14 14 13 12 11 11 10 9 9 8 7 7 7 7 7 7 6 4 3 2 1 0 1 1 1 0 2 3 4 6 7 7 8 10 10 10 10 10 11 12 12 11 11 11 11 11 13 14 15 15 16 16 15 15 15 14 14 13
7 8 8 9 9 9 9 9 9 9 9 9 9 10 10 10 10 10 10 11 11 12 12 13 14 14 14 13 12 11 11 10 10 9 8 7 7 6 6 6 6 5 5 4 3 2 2 1 0 1 1 0 1 2 3 4 6 7 8 8 9 10 10 10 10 10 11 11 10 9 10 10 12 13 13 14 15 16 16 15 15 14 14 13 13
Wind_Direction
201 199 196 201 204 202 202 198 188 185 193 191 182 179 178 173 168 166 164 163 160 159 159 161 162 157 150 146 141 139 137 136 135 129 124 119 114 114 115 114 106 94 93 92 86 82 81 84 84 75 62 67 80 87 84 80 77 79 90 112 125 136 146 132 129 129 128 131 135 125 119 125 99 83 92 85 66 72 82 74 53 47 10 303 315
199 204 200 199 201 197 190 187 185 187 192 190 185 185 183 177 171 168 169 169 167 164 161 161 166 164 157 152 150 149 147 146 143 137 132 128 127 127 125 129 116 104 109 116 114 103 88 96 101 88 75 73 80 94 97 108 112 101 99 108 118 123 129 136 139 142 143 147 153 141 131 143 132 110 108 93 84 97 107 67 32 21 3 334 304
191 202 203 200 199 194 183 180 184 187 188 188 187 187 184 180 174 170 170 171 169 168 167 166 170 171 166 161 157 156 156 154 150 146 141 136 139 146 149 153 154 152 162 164 152 139 139 174 144 133 150 146 208 304 116 224 233 110 107 108 119 122 122 134 146 152 152 155 170 168 145 141 145 130 133 124 103 313 241 265 337 343 339 343 318
190 198 202 199 196 192 184 181 185 186 187 189 187 185 183 181 180 176 173 173 172 172 173 176 178 178 177 174 170 169 170 170 170 168 166 165 176 204 208 207 208 214 226 233 226 208 206 223 214 202 215 214 223 238 218 226 231 157 148 141 139 139 136 144 164 178 171 163 170 173 153 154 155 126 139 186 182 284 280 265 291 296 309 324 314
194 198 199 192 188 189 184 182 187 188 188 190 187 183 182 183 184 183 180 178 178 178 180 184 186 187 188 184 179 181 182 184 186 184 186 191 203 224 232 229 229 234 237 233 236 238 233 239 238 224 229 233 229 237 245 254 259 226 198 184 169 164 172 189 195 207 198 172 164 170 168 167 157 130 10 326 310 301 309 297 282 281 297 310 301
180 184 188 186 187 188 184 183 188 188 187 192 190 183 182 184 186 187 185 182 181 183 186 190 194 200 202 195 189 188 187 189 191 194 202 204 203 214 221 226 234 237 232 229 239 246 242 242 243 237 237 238 234 232 232 242 258 254 242 234 208 187 197 212 209 221 231 199 182 185 185 185 184 178 190 342 333 318 326 329 309 289 298 312 308
164 170 176 179 182 185 182 176 179 186 192 196 196 189 185 186 190 190 186 183 183 187 192 196 199 206 211 207 199 194 193 197 203 210 218 211 202 207 218 230 238 234 232 239 249 254 254 249 245 241 242 244 241 240 236 230 239 248 248 252 249 226 222 228 229 236 237 222 220 225 218 214 220 222 217 260 288 289 326 337 326 314 312 313 310
152 157 164 169 174 176 175 176 188 199 199 193 194 197 191 189 192 192 188 187 192 195 198 199 198 203 208 208 204 199 200 208 210 214 221 218 210 208 217 232 235 233 236 235 226 232 240 243 245 247 250 248 241 241 244 231 229 237 235 236 244 240 237 241 241 243 243 238 247 257 254 252 246 241 254 265 275 291 323 330 320 314 314 313 309
139 142 146 149 159 167 171 183 198 203 194 189 194 199 197 191 187 182 177 179 191 201 202 197 196 202 206 205 205 202 198 203 209 213 216 215 213 209 216 225 228 237 240 223 224 247 251 244 240 240 241 242 244 247 247 237 233 236 231 228 232 237 247 258 254 252 252 252 258 259 256 263 262 259 274 282 291 310 316 313 308 310 311 309 309
135 135 134 134 142 152 157 169 182 180 179 192 199 195 192 185 177 175 176 182 197 218 229 211 198 203 205 202 199 190 189 204 215 221 218 207 197 187 201 214 215 224 228 214 223 252 256 244 236 241 247 256 264 266 259 245 240 239 232 223 220 220 232 250 256 256 258 264 268 260 259 277 283 276 281 279 273 294 302 305 306 308 307 304 310
134 135 135 137 141 143 142 143 153 163 172 187 194 191 187 183 182 190 196 195 205 221 230 221 204 203 201 196 187 173 173 184 187 187 181 172 162 160 175 186 171 187 199 191 202 222 238 237 234 244 254 267 276 278 272 257 246 240 236 232 231 230 232 242 250 252 253 262 273 267 266 283 282 270 275 276 276 289 301 304 302 304 306 305 310
122 127 135 143 143 143 149 151 159 165 161 168 182 190 196 191 186 189 190 184 188 201 204 191 181 180 169 162 151 138 135 131 126 123 122 122 121 121 135 169 162 202 224 196 208 215 236 263 255 216 227 268 285 282 276 270 255 242 237 235 237 238 238 240 245 246 241 246 259 260 257 266 267 267 277 293 306 304 300 300 298 298 300 300 302
101 104 113 123 124 132 150 160 173 182 174 171 189 206 217 206 184 175 171 164 160 167 170 161 156 147 137 133 124 118 118 115 110 109 107 104 100 99 99 103 129 253 293 297 294 298 293 298 300 252 253 295 309 285 278 281 271 254 240 232 234 238 238 237 239 239 235 241 255 251 238 248 259 255 262 283 305 308 303 303 303 298 295 294 295
97 97 98 99 105 120 137 142 153 170 174 170 178 191 196 186 175 168 160 149 144 148 153 147 138 130 127 125 118 114 113 111 108 106 101 94 90 91 85 66 71 74 297 281 282 287 280 277 282 282 290 322 312 281 285 285 278 263 233 216 219 225 225 222 226 232 231 235 251 245 236 248 250 246 262 278 294 301 300 300 299 297 293 291 289
98 100 102 104 108 114 121 125 127 137 150 153 153 158 161 159 157 154 148 142 141 144 144 136 128 125 125 124 119 116 116 113 107 99 90 84 78 77 76 76 85 92 84 63 285 283 279 276 279 293 345 2 298 287 253 237 236 193 167 164 163 176 190 195 200 204 202 205 217 229 245 254 254 258 270 283 292 293 293 291 287 286 286 286 285
108 109 112 114 117 121 125 128 129 130 134 138 138 140 141 142 144 145 144 143 142 142 139 135 132 131 130 130 125 120 118 114 104 94 87 82 80 84 94 102 100 98 89 82 73 38 9 340 310 49 80 62 14 9 113 181 177 161 158 155 151 168 192 199 200 204 212 226 243 251 258 264 268 272 278 285 287 288 291 287 280 277 278 282 285
105 108 113 115 120 130 137 139 142 144 146 147 145 143 144 146 148 152 153 152 151 149 145 144 144 142 140 138 133 127 127 121 108 97 90 86 88 95 107 105 100 94 91 84 76 93 116 109 96 94 87 71 50 43 71 128 157 165 164 161 156 159 182 200 211 226 242 256 264 266 270 275 279 282 285 286 282 279 280 281 282 283 283 285 287
90 88 95 108 117 132 146 152 152 156 161 160 154 155 160 162 163 165 167 166 164 161 158 155 153 151 150 149 145 143 145 142 128 114 104 97 97 106 130 109 109 105 107 106 100 110 125 122 110 105 99 83 69 67 85 113 173 200 188 192 195 171 168 201 236 259 270 277 283 286 290 294 294 292 289 285 283 277 270 274 284 288 284 283 287
60 54 41 357 291 261 244 230 212 203 201 193 188 189 183 174 171 174 178 179 175 172 172 169 164 162 161 160 158 156 156 156 145 129 121 108 99 94 284 126 121 132 136 129 121 120 126 128 124 124 119 108 105 111 121 131 177 218 223 237 238 213 169 193 248 277 290 296 297 298 301 301 299 294 285 282 290 294 279 270 277 284 284 285 289
3 345 320 298 287 273 263 257 249 241 233 222 218 212 194 181 181 185 190 192 188 186 188 185 180 177 172 169 168 165 163 162 154 143 136 124 107 94 300 271 138 147 163 153 140 129 119 117 126 131 131 137 140 145 156 161 149 133 199 255 243 210 189 275 286 294 296 291 287 285 286 285 279 275 269 270 284 293 281 267 273 282 285 287 287
339 323 304 285 275 266 259 253 247 244 238 220 210 204 192 187 189 191 195 194 189 190 196 199 196 187 179 178 178 175 171 167 163 158 152 147 133 106 25 319 285 261 211 184 168 144 125 121 136 142 138 144 147 145 167 182 175 152 192 249 241 251 275 290 298 304 296 282 281 282 280 277 272 269 269 267 270 275 272 270 278 283 283 284 285
329 316 304 287 278 272 264 255 246 243 237 221 209 204 202 202 201 202 203 197 191 192 196 199 199 190 184 183 180 180 182 180 177 173 166 169 169 152 157 228 233 254 246 222 202 153 133 136 152 155 154 162 166 164 185 228 271 278 291 291 281 299 318 304 288 295 289 279 283 285 283 282 279 276 277 276 274 274 274 279 285 285 282 280 281
320 315 309 297 288 278 266 256 246 239 235 232 227 221 218 216 213 212 215 215 211 206 199 197 195 188 186 187 183 182 186 187 186 184 186 198 201 198 209 207 195 208 250 250 219 158 143 158 172 169 170 183 179 168 208 330 331 324 329 327 324 335 340 300 275 284 287 285 286 284 282 283 284 283 285 287 287 287 286 287 288 286 283 280 279
313 309 303 295 290 283 273 263 250 240 236 234 233 231 229 225 221 220 222 223 220 211 202 199 198 194 190 187 182 180 183 189 198 204 212 225 224 219 220 210 195 198 234 238 180 158 157 174 183 176 175 185 184 171 162 358 355 353 346 339 343 349 327 283 281 286 286 283 283 284 287 290 291 293 296 297 295 293 290 289 287 284 283 282 281
303 299 295 292 288 284 277 270 260 250 242 235 232 234 235 230 227 227 224 222 221 217 211 207 207 208 207 201 194 187 179 182 200 223 238 242 236 226 222 216 207 197 184 171 177 182 186 187 180 173 171 158 117 97 58 23 7 356 353 360 12 1 305 295 298 295 292 292 292 295 298 297 298 298 297 295 292 291 290 290 289 288 287 286 284
291 289 287 285 284 280 276 271 265 256 249 241 236 236 236 232 230 230 228 226 225 226 225 223 223 225 226 226 226 212 190 183 194 223 244 244 234 223 216 215 211 200 193 195 197 193 188 178 167 162 152 126 112 115 58 10 7 7 11 22 36 324 310 321 309 294 300 308 306 304 305 303 302 301 298 294 292 293 295 295 294 292 292 291 290
281 280 279 278 277 275 272 270 267 260 253 247 241 238 237 235 232 231 230 229 228 230 232 234 235 235 234 237 239 224 202 192 190 196 208 212 211 211 209 208 205 196 192 192 186 178 175 171 166 164 154 144 151 162 19 15 16 11 6 11 354 287 329 344 323 301 308 314 310 307 307 306 304 302 300 298 296 296 297 295 294 294 295 294 293
275 274 274 272 270 268 266 265 264 261 255 250 245 242 238 235 234 233 232 231 231 233 236 237 238 239 240 243 241 229 220 217 206 193 191 192 191 189 192 195 190 177 171 168 168 172 174 167 163 170 173 172 179 178 80 53 39 332 324 315 282 271 301 315 313 311 313 312 309 306 307 307 305 304 302 300 298 298 299 296 294 293 294 294 291
271 271 271 268 264 262 260 258 257 256 253 249 244 241 238 234 233 235 234 229 227 229 235 242 245 245 245 246 243 238 238 232 213 203 204 205 197 184 182 186 178 170 175 177 170 166 167 167 172 183 187 188 193 197 199 233 257 279 341 320 290 294 316 314 310 311 313 311 309 308 309 308 306 305 303 299 298 300 300 297 295 294 292 291 289
267 265 266 265 262 260 258 255 252 249 249 247 242 238 236 233 230 229 224 219 221 223 228 237 246 251 250 249 245 244 246 227 205 215 229 224 209 196 189 185 182 183 190 188 174 164 169 179 187 191 192 194 198 199 200 233 255 258 300 298 289 310 329 322 316 313 310 308 308 308 308 306 305 305 303 301 300 301 300 297 295 293 291 290 289
266 262 260 260 263 263 260 257 254 249 247 246 243 237 232 228 226 228 228 226 226 229 232 234 239 245 247 248 248 248 249 242 236 243 250 231 212 206 202 197 198 200 196 184 172 172 181 185 186 187 191 190 182 179 184 187 223 309 312 298 290 310 321 321 318 314 309 307 307 308 307 306 305 304 303 302 300 299 300 298 295 293 292 292 292
265 263 260 261 264 264 262 261 258 253 247 244 242 239 236 228 221 223 232 237 237 235 236 238 243 248 248 246 244 247 253 254 252 254 250 228 213 211 209 205 204 201 189 179 177 183 186 185 183 180 177 173 167 164 159 150 112 15 325 321 329 329 327 327 321 314 310 308 308 309 309 308 306 303 301 300 297 296 296 296 296 296 294 292 290
264 263 263 266 267 263 260 257 255 250 246 241 237 237 238 237 230 223 225 233 241 246 248 250 252 254 257 255 249 246 252 256 255 254 245 225 212 208 204 199 197 190 181 178 184 184 179 178 177 172 169 166 160 153 147 137 103 40 349 344 348 341 336 335 327 317 313 311 308 308 308 308 307 304 302 300 298 297 296 296 297 297 295 293 293
263 264 268 274 273 267 260 256 252 249 244 239 235 233 233 235 238 235 228 223 229 240 247 250 251 252 253 254 252 250 249 252 253 249 238 220 208 202 193 184 182 180 177 179 186 180 173 173 169 164 163 160 153 147 139 124 86 30 354 350 353 350 344 341 333 323 318 315 310 307 307 308 308 307 307 305 302 302 302 301 300 298 296 296 296
260 265 273 280 276 267 261 257 252 249 246 240 237 236 234 233 235 238 239 238 236 238 239 238 241 246 246 247 248 247 245 246 246 240 228 212 199 191 181 170 169 172 174 183 187 175 168 169 165 159 157 154 149 145 138 124 84 13 9 1 352 345 341 340 339 334 325 317 314 311 310 312 312 311 310 308 305 303 302 301 299 297 295 295 294
256 264 278 283 273 264 263 260 255 256 261 260 254 250 245 240 237 236 239 240 238 241 244 237 232 246 256 255 248 241 239 239 234 226 216 203 193 184 173 164 165 167 169 176 180 171 163 163 161 157 154 150 147 144 139 126 80 20 9 353 343 343 341 339 343 343 335 326 323 321 318 317 317 315 313 309 306 303 302 300 298 297 295 293 292
257 271 285 283 271 264 260 255 255 267 279 280 271 260 249 246 249 250 249 245 243 245 248 245 237 239 253 255 241 229 222 215 210 206 200 190 183 176 167 161 162 162 161 165 170 165 157 156 157 155 150 147 145 143 135 115 38 18 356 334 329 343 344 335 337 343 341 335 331 329 326 323 321 318 315 311 307 306 305 304 302 299 296 295 293
263 275 278 271 268 273 267 258 263 282 282 273 268 265 261 259 258 254 251 251 250 247 245 245 244 242 237 228 215 205 192 180 176 176 174 172 169 166 162 161 161 159 156 158 163 161 155 153 155 152 145 140 135 129 119 65 15 3 344 328 319 334 341 337 337 344 345 341 338 336 333 329 326 323 318 313 310 310 310 310 307 302 299 298 296
266 270 260 247 255 284 296 292 293 297 289 281 278 275 271 265 258 251 246 243 239 235 235 239 243 241 233 210 182 176 170 163 159 159 160 161 162 161 158 157 158 157 152 150 154 157 154 151 149 143 136 130 123 113 92 36 9 351 337 332 332 338 343 341 340 344 347 347 345 342 335 330 328 325 320 315 314 314 314 312 307 302 299 298 296
258 244 224 227 247 287 325 321 309 303 300 293 285 278 269 259 251 247 244 240 234 231 232 230 223 217 208 191 177 170 163 155 152 153 154 154 150 146 145 145 143 141 140 142 148 153 152 148 145 138 129 122 113 94 61 24 2 344 339 343 344 342 341 338 337 340 345 349 348 343 335 330 327 325 322 320 318 315 313 311 307 303 299 297 296
251 225 181 245 320 326 336 332 325 319 313 303 291 278 267 256 249 243 238 232 225 216 206 198 193 187 178 170 165 161 156 150 148 147 147 143 138 134 136 138 136 134 135 141 148 151 150 146 141 133 123 115 104 78 49 22 358 350 354 357 352 345 341 338 337 338 342 348 347 339 331 327 323 318 317 319 318 316 316 315 312 308 303 300 299
250 199 112 29 358 3 5 358 352 343 335 326 312 292 269 247 232 220 204 188 177 168 159 151 148 151 153 153 153 150 145 142 142 142 141 139 136 134 134 135 135 135 138 144 150 153 150 142 133 124 113 100 78 56 41 18 1 0 4 3 359 354 348 341 336 338 343 344 338 329 326 324 319 313 314 317 319 320 320 318 314 310 308 306 304
253 63 49 26 37 57 51 31 21 14 4 359 0 2 5 169 165 160 153 147 143 139 134 127 125 129 135 141 146 145 139 135 134 132 130 131 132 132 132 132 132 134 141 149 154 153 143 131 123 116 107 91 71 60 47 20 12 16 14 5 1 1 358 348 337 338 340 337 328 324 325 322 316 313 315 319 322 321 322 321 317 313 312 311 310
59 41 51 74 86 90 75 55 49 47 39 40 61 76 88 103 113 115 117 118 116 113 113 114 116 120 124 130 137 139 137 136 136 134 131 128 127 125 125 127 129 135 144 149 148 143 138 135 127 115 101 83 67 61 51 34 31 29 23 16 9 4 358 350 342 338 337 333 327 324 322 317 314 313 316 320 322 323 325 328 325 319 316 316 315
55 67 91 98 104 105 91 74 68 66 60 60 69 78 85 91 95 98 100 100 98 99 103 108 113 118 124 130 133 135 137 139 140 139 135 130 123 118 120 124 128 133 139 137 127 126 135 139 127 109 97 80 52 36 31 34 32 24 20 21 19 8 357 350 346 342 337 330 324 320 319 316 313 313 315 318 321 323 326 329 327 323 320 319 317
76 93 100 106 111 110 102 93 86 80 74 69 71 77 83 87 89 90 92 93 94 94 97 102 107 114 121 127 129 130 132 134 134 131 128 122 118 119 124 127 128 133 135 130 125 132 142 141 124 109 104 89 29 22 30 29 17 7 6 8 8 4 359 354 350 346 340 331 323 320 319 316 312 312 315 317 320 324 326 327 328 327 324 321 319
80 88 93 97 100 101 102 99 92 89 85 81 79 81 86 91 94 94 95 98 99 98 97 100 105 110 115 120 122 123 125 127 126 123 121 120 120 124 127 127 129 133 135 130 127 136 144 141 125 117 117 116 19 26 33 28 11 3 360 353 349 352 355 353 352 349 343 335 328 325 324 320 314 313 316 317 320 325 327 327 328 329 326 323 324
76 81 86 88 90 94 100 104 104 102 98 93 90 92 96 100 101 101 100 100 100 99 101 105 108 111 113 116 118 121 123 124 122 120 120 120 120 122 125 129 129 129 129 131 136 144 152 150 143 141 140 129 17 10 17 15 6 1 355 342 338 341 345 347 350 349 344 340 338 335 331 324 316 311 312 316 321 327 329 328 329 330 328 326 328
74 75 78 82 84 85 85 86 91 95 96 96 97 99 102 106 108 108 107 105 104 106 109 112 114 116 118 120 121 121 120 118 116 116 117 118 118 121 129 134 130 123 122 130 141 150 157 161 177 197 178 157 341 350 357 355 347 343 338 332 332 334 337 341 345 346 345 346 343 337 334 330 319 311 314 321 327 330 331 330 331 331 330 330 332
82 82 84 86 86 86 84 83 83 84 88 95 99 100 99 101 103 106 110 111 112 114 116 118 120 122 123 122 121 118 115 113 113 112 112 113 112 114 124 130 127 120 119 121 120 121 127 140 175 167 160 172 314 349 350 341 335 334 332 329 329 329 332 335 339 342 345 344 338 338 345 341 322 313 320 328 333 333 334 335 334 333 333 334 336
82 83 87 90 91 88 86 85 83 81 83 89 93 94 95 97 100 102 106 108 110 112 114 116 118 120 120 118 115 112 111 111 110 108 109 112 112 112 118 123 122 118 117 117 116 120 127 126 105 119 153 175 15 20 8 347 341 343 340 336 332 331 330 331 333 338 342 339 335 340 345 331 313 311 321 329 334 336 337 337 336 336 335 337 339